| time (UTC) | temp F | wind direction | speed MPH | gust MPH | rain 1hr in | rain 24hr in | rain mn in | humidity % | barometer mb |
| 20260506034116 | 60 | 0.0 | 0.0 | 0.00 | 0.02 | 0.02 | 85 | 1008.1 | |
| 20260506033116 | 59 | 0.0 | 1.0 | 0.00 | 0.02 | 0.02 | 87 | 1008.0 | |
| 20260506032116 | 58 | 338 | 1.0 | 2.0 | 0.00 | 0.02 | 0.02 | 90 | 1008.0 |
| 20260506031116 | 58 | 0.0 | 0.0 | 0.00 | 0.02 | 0.02 | 92 | 1007.9 | |
| 20260506030116 | 58 | 0.0 | 0.0 | 0.00 | 0.02 | 0.02 | 92 | 1008.0 | |
| 20260506025116 | 58 | 0.0 | 0.0 | 0.00 | 0.02 | 0.02 | 92 | 1007.7 | |
| 20260506024116 | 57 | 0.0 | 0.0 | 0.00 | 0.02 | 0.02 | 92 | 1007.9 | |
| 20260506023116 | 57 | 0.0 | 0.0 | 0.00 | 0.02 | 0.02 | 92 | 1007.8 | |
| 20260506022116 | 57 | 0.0 | 0.0 | 0.00 | 0.02 | 0.02 | 91 | 1007.8 | |
| 20260506021136 | 57 | 0.0 | 0.0 | 0.00 | 0.02 | 0.02 | 90 | 1007.8 | |
| 20260506020116 | 58 | 0.0 | 0.0 | 0.00 | 0.02 | 0.02 | 91 | 1007.8 | |
| 20260506015116 | 58 | 0.0 | 0.0 | 0.00 | 0.02 | 0.02 | 90 | 1007.7 | |
| 20260506014116 | 59 | 0.0 | 0.0 | 0.00 | 0.02 | 0.02 | 90 | 1007.6 | |
| 20260506013116 | 58 | 0.0 | 0.0 | 0.00 | 0.02 | 0.02 | 89 | 1007.1 | |
| 20260506012116 | 59 | 0.0 | 0.0 | 0.00 | 0.02 | 0.02 | 90 | 1007.3 | |
| 20260506011116 | 58 | 0.0 | 0.0 | 0.00 | 0.02 | 0.02 | 89 | 1007.1 | |
| 20260506010116 | 58 | 0.0 | 0.0 | 0.00 | 0.02 | 0.02 | 88 | 1007.2 | |
| 20260506005136 | 58 | 0.0 | 0.0 | 0.00 | 0.02 | 0.02 | 87 | 1007.2 | |
| 20260506004116 | 58 | 0.0 | 1.0 | 0.00 | 0.02 | 0.02 | 88 | 1007.2 | |
| 20260506003117 | 58 | 0.0 | 0.0 | 0.00 | 0.02 | 0.02 | 89 | 1007.2 | |
| 20260506002116 | 59 | 90 | 1.0 | 2.0 | 0.00 | 0.02 | 0.02 | 86 | 1007.0 |
| 20260506001136 | 60 | 0.0 | 1.0 | 0.01 | 0.02 | 0.02 | 89 | 1007.0 | |
| 20260506000115 | 60 | 0.0 | 0.0 | 0.01 | 0.02 | 0.02 | 88 | 1007.0 | |
| 20260505235216 | 60 | 0.0 | 0.0 | 0.01 | 0.02 | 0.02 | 87 | 1006.9 | |
| 20260505234116 | 60 | 0.0 | 0.0 | 0.01 | 0.02 | 0.02 | 85 | 1006.7 | |
| 20260505233116 | 60 | 0.0 | 0.0 | 0.01 | 0.02 | 0.02 | 87 | 1006.6 | |
| 20260505232116 | 60 | 0.0 | 0.0 | 0.01 | 0.02 | 0.02 | 87 | 1006.5 | |
| 20260505231116 | 61 | 0.0 | 0.0 | 0.00 | 0.01 | 0.01 | 88 | 1006.4 | |
| 20260505230116 | 61 | 0 | 1.0 | 1.0 | 0.00 | 0.01 | 0.01 | 86 | 1005.6 |
| 20260505225115 | 61 | 203 | 1.0 | 2.0 | 0.00 | 0.01 | 0.01 | 87 | 1005.8 |
| 20260505224116 | 61 | 0.0 | 1.0 | 0.01 | 0.01 | 0.01 | 88 | 1005.9 | |
| 20260505223136 | 61 | 0.0 | 0.0 | 0.01 | 0.01 | 0.01 | 83 | 1005.5 | |
| 20260505222116 | 60 | 0.0 | 0.0 | 0.01 | 0.01 | 0.01 | 83 | 1005.0 | |
| 20260505221116 | 62 | 90 | 1.0 | 1.0 | 0.01 | 0.01 | 0.01 | 78 | 1004.5 |
| 20260505220136 | 63 | 135 | 2.0 | 5.0 | 0.01 | 0.01 | 0.01 | 77 | 1004.5 |
| 20260505215116 | 63 | 0.0 | 1.0 | 0.01 | 0.01 | 0.01 | 77 | 1004.0 | |
| 20260505214116 | 63 | 270 | 2.0 | 3.0 | 0.00 | 0.00 | 0.00 | 76 | 1004.8 |
| 20260505213136 | 65 | 338 | 4.0 | 6.0 | 0.00 | 0.00 | 0.00 | 73 | 1004.9 |
| 20260505212116 | 69 | 248 | 4.0 | 9.0 | 0.00 | 0.00 | 0.00 | 64 | 1005.0 |
| 20260505211116 | 74 | 293 | 6.0 | 15.0 | 0.00 | 0.00 | 0.00 | 45 | 1004.7 |
| 20260505210116 | 74 | 293 | 2.0 | 3.0 | 0.00 | 0.00 | 0.00 | 44 | 1003.0 |
| 20260505205116 | 75 | 225 | 1.0 | 3.0 | 0.00 | 0.00 | 0.00 | 42 | 1002.9 |
| 20260505204115 | 75 | 90 | 1.0 | 2.0 | 0.00 | 0.00 | 0.00 | 41 | 1002.9 |
| 20260505203156 | 75 | 158 | 2.0 | 5.0 | 0.00 | 0.00 | 0.00 | 39 | 1003.0 |
| 20260505202116 | 75 | 180 | 7.0 | 9.0 | 0.00 | 0.00 | 0.00 | 40 | 1003.0 |
| 20260505201116 | 74 | 0 | 2.0 | 4.0 | 0.00 | 0.00 | 0.00 | 43 | 1003.1 |
| 20260505200116 | 75 | 315 | 1.0 | 2.0 | 0.00 | 0.00 | 0.00 | 42 | 1003.2 |
| 20260505195116 | 75 | 225 | 1.0 | 2.0 | 0.00 | 0.00 | 0.00 | 42 | 1003.2 |
| 20260505194116 | 76 | 113 | 3.0 | 7.0 | 0.00 | 0.00 | 0.00 | 42 | 1003.5 |
| 20260505193116 | 75 | 23 | 2.0 | 4.0 | 0.00 | 0.00 | 0.00 | 41 | 1003.3 |
| 20260505192116 | 76 | 180 | 2.0 | 4.0 | 0.00 | 0.00 | 0.00 | 39 | 1003.6 |
| 20260505191116 | 77 | 158 | 2.0 | 4.0 | 0.00 | 0.00 | 0.00 | 38 | 1003.6 |
| 20260505190116 | 77 | 23 | 2.0 | 2.0 | 0.00 | 0.00 | 0.00 | 39 | 1003.8 |
| 20260505185115 | 76 | 90 | 5.0 | 8.0 | 0.00 | 0.00 | 0.00 | 38 | 1003.6 |
| 20260505184116 | 76 | 225 | 2.0 | 5.0 | 0.00 | 0.00 | 0.00 | 41 | 1004.0 |
| 20260505183116 | 75 | 68 | 4.0 | 7.0 | 0.00 | 0.00 | 0.00 | 41 | 1004.1 |
| 20260505182116 | 75 | 0 | 2.0 | 6.0 | 0.00 | 0.00 | 0.00 | 41 | 1004.3 |
| 20260505181116 | 75 | 23 | 2.0 | 5.0 | 0.00 | 0.00 | 0.00 | 40 | 1004.5 |
| 20260505180116 | 75 | 338 | 2.0 | 3.0 | 0.00 | 0.00 | 0.00 | 40 | 1004.6 |
| 20260505175116 | 75 | 270 | 1.0 | 2.0 | 0.00 | 0.00 | 0.00 | 40 | 1004.8 |
| 20260505174116 | 75 | 225 | 3.0 | 4.0 | 0.00 | 0.00 | 0.00 | 40 | 1004.9 |
| 20260505173116 | 75 | 113 | 3.0 | 5.0 | 0.00 | 0.00 | 0.00 | 42 | 1005.0 |
| 20260505172116 | 74 | 45 | 2.0 | 4.0 | 0.00 | 0.00 | 0.00 | 43 | 1005.1 |
| 20260505171116 | 74 | 113 | 5.0 | 7.0 | 0.00 | 0.00 | 0.00 | 44 | 1005.1 |
| 20260505170115 | 73 | 45 | 3.0 | 7.0 | 0.00 | 0.00 | 0.00 | 44 | 1005.2 |
| 20260505165115 | 73 | 293 | 2.0 | 4.0 | 0.00 | 0.00 | 0.00 | 45 | 1005.3 |
| 20260505164115 | 73 | 113 | 6.0 | 8.0 | 0.00 | 0.00 | 0.00 | 46 | 1005.5 |
| 20260505163139 | 72 | 135 | 3.0 | 5.0 | 0.00 | 0.00 | 0.00 | 48 | 1005.9 |
| 20260505162115 | 71 | 0 | 4.0 | 7.0 | 0.00 | 0.00 | 0.00 | 49 | 1005.9 |
| 20260505161115 | 70 | 315 | 3.0 | 5.0 | 0.00 | 0.00 | 0.00 | 51 | 1006.0 |
| 20260505160116 | 71 | 113 | 2.0 | 4.0 | 0.00 | 0.00 | 0.00 | 51 | 1006.1 |
| 20260505153115 | 70 | 0.0 | 1.0 | 0.00 | 0.00 | 0.00 | 51 | 1007.2 | |
| 20260505152115 | 70 | 158 | 5.0 | 7.0 | 0.00 | 0.00 | 0.00 | 52 | 1007.3 |
| 20260505151116 | 69 | 45 | 2.0 | 3.0 | 0.00 | 0.00 | 0.00 | 52 | 1007.3 |
| 20260505150115 | 69 | 68 | 1.0 | 3.0 | 0.00 | 0.00 | 0.00 | 52 | 1007.3 |
| 20260505140115 | 65 | 113 | 3.0 | 5.0 | 0.00 | 0.00 | 0.00 | 59 | 1007.4 |
| 20260505130136 | 59 | 135 | 1.0 | 2.0 | 0.00 | 0.00 | 0.00 | 65 | 1007.3 |
| 20260505124117 | 59 | 338 | 1.0 | 1.0 | 0.00 | 0.00 | 0.00 | 65 | 1007.2 |
| 20260505123138 | 59 | 0.0 | 0.0 | 0.00 | 0.00 | 0.00 | 64 | 1007.2 | |
| 20260505122117 | 59 | 248 | 1.0 | 2.0 | 0.00 | 0.00 | 0.00 | 63 | 1007.2 |
| 20260505121119 | 60 | 45 | 1.0 | 2.0 | 0.00 | 0.00 | 0.00 | 61 | 1007.4 |
| 20260505120117 | 60 | 68 | 2.0 | 3.0 | 0.00 | 0.00 | 0.00 | 62 | 1007.8 |
| 20260505115117 | 59 | 113 | 1.0 | 4.0 | 0.00 | 0.00 | 0.00 | 62 | 1007.7 |
| 20260505114117 | 59 | 90 | 3.0 | 5.0 | 0.00 | 0.00 | 0.00 | 61 | 1007.8 |
| 20260505113118 | 59 | 68 | 2.0 | 4.0 | 0.00 | 0.00 | 0.00 | 62 | 1007.9 |
| 20260505112117 | 58 | 0.0 | 1.0 | 0.00 | 0.00 | 0.00 | 65 | 1007.8 | |
| 20260505111117 | 58 | 338 | 2.0 | 3.0 | 0.00 | 0.00 | 0.00 | 65 | 1007.6 |
| 20260505110117 | 58 | 0.0 | 0.0 | 0.00 | 0.00 | 0.00 | 64 | 1007.3 | |
| 20260505102117 | 53 | 0.0 | 1.0 | 0.00 | 0.00 | 0.00 | 71 | 1007.2 | |
| 20260505101117 | 53 | 0.0 | 1.0 | 0.00 | 0.00 | 0.00 | 70 | 1007.2 | |
| 20260505100117 | 53 | 293 | 1.0 | 2.0 | 0.00 | 0.00 | 0.00 | 70 | 1007.3 |
| 20260505095117 | 54 | 293 | 2.0 | 2.0 | 0.00 | 0.00 | 0.00 | 69 | 1007.2 |
| 20260505094117 | 54 | 0.0 | 1.0 | 0.00 | 0.00 | 0.00 | 69 | 1007.4 | |
| 20260505093138 | 54 | 0.0 | 0.0 | 0.00 | 0.00 | 0.00 | 69 | 1007.4 | |
| 20260505092117 | 54 | 315 | 1.0 | 2.0 | 0.00 | 0.00 | 0.00 | 69 | 1007.6 |
| 20260505091117 | 54 | 270 | 1.0 | 2.0 | 0.00 | 0.00 | 0.00 | 69 | 1007.6 |
| 20260505090117 | 54 | 0.0 | 0.0 | 0.00 | 0.00 | 0.00 | 69 | 1007.7 | |
| 20260505085137 | 54 | 315 | 1.0 | 2.0 | 0.00 | 0.00 | 0.00 | 69 | 1007.8 |
| 20260505084117 | 54 | 315 | 2.0 | 3.0 | 0.00 | 0.00 | 0.00 | 69 | 1007.6 |
| 20260505083117 | 54 | 0 | 1.0 | 2.0 | 0.00 | 0.00 | 0.00 | 69 | 1007.7 |
| 20260505082117 | 53 | 315 | 2.0 | 3.0 | 0.00 | 0.00 | 0.00 | 69 | 1007.7 |
| 20260505081117 | 53 | 315 | 1.0 | 2.0 | 0.00 | 0.00 | 0.00 | 69 | 1007.6 |
| 20260505080117 | 53 | 293 | 1.0 | 2.0 | 0.00 | 0.00 | 0.00 | 69 | 1007.7 |
| 20260505075117 | 54 | 0 | 1.0 | 3.0 | 0.00 | 0.00 | 0.00 | 68 | 1007.7 |
| 20260505074117 | 54 | 0 | 1.0 | 2.0 | 0.00 | 0.00 | 0.00 | 69 | 1007.8 |
| 20260505073117 | 54 | 338 | 1.0 | 2.0 | 0.00 | 0.00 | 0.00 | 68 | 1007.8 |
| 20260505072117 | 54 | 0.0 | 0.0 | 0.00 | 0.00 | 0.00 | 69 | 1007.9 | |
| 20260505071118 | 54 | 315 | 3.0 | 5.0 | 0.00 | 0.00 | 0.00 | 69 | 1007.9 |
| 20260505070117 | 53 | 338 | 2.0 | 3.0 | 0.00 | 0.00 | 0.00 | 69 | 1007.9 |
| 20260505065117 | 53 | 0.0 | 1.0 | 0.00 | 0.00 | 0.00 | 70 | 1007.9 | |
| 20260505064117 | 53 | 293 | 1.0 | 2.0 | 0.00 | 0.00 | 0.00 | 70 | 1008.0 |
| 20260505063117 | 53 | 0.0 | 0.0 | 0.00 | 0.00 | 0.00 | 70 | 1008.1 | |
| 20260505062117 | 54 | 293 | 1.0 | 2.0 | 0.00 | 0.00 | 0.00 | 69 | 1008.2 |
| 20260505061117 | 54 | 0.0 | 1.0 | 0.00 | 0.00 | 0.00 | 69 | 1008.2 | |
| 20260505060117 | 54 | 225 | 1.0 | 2.0 | 0.00 | 0.00 | 0.00 | 69 | 1008.2 |
| 20260505055117 | 54 | 338 | 1.0 | 2.0 | 0.00 | 0.00 | 0.00 | 68 | 1008.2 |
| 20260505054117 | 54 | 315 | 3.0 | 4.0 | 0.00 | 0.00 | 0.00 | 68 | 1008.3 |
| 20260505053117 | 54 | 113 | 1.0 | 2.0 | 0.00 | 0.00 | 0.00 | 68 | 1008.3 |
| 20260505052117 | 54 | 315 | 1.0 | 3.0 | 0.00 | 0.00 | 0.00 | 68 | 1008.3 |
| 20260505051117 | 54 | 0.0 | 0.0 | 0.00 | 0.00 | 0.00 | 68 | 1008.4 | |
| 20260505050118 | 54 | 293 | 2.0 | 3.0 | 0.00 | 0.00 | 0.00 | 67 | 1008.2 |
| 20260505041117 | 54 | 293 | 1.0 | 2.0 | 0.00 | 0.00 | 0.00 | 67 | 1007.9 |
| 20260505040158 | 54 | 338 | 2.0 | 4.0 | 0.00 | 0.00 | 0.00 | 67 | 1007.8 |
| 20260505035117 | 54 | 0.0 | 1.0 | 0.00 | 0.00 | 0.00 | 67 | 1007.7 |